Location: Pl�tzky
(52.0521°N, 11.8020°E)
Time: 03:32:25
(UTC+00:00)

CENTAUR R/B - Pass Details

Date: 22 November 2019
Orbit: 779 x 1409 km, 63.4° (Epoch: 01 December)

Event Time Altitude Azimuth Distance (km) Brightness Sun altitude
Rises 18:41:11 0° 314° (NW) 4,057 6.5 -31.4°
Reaches altitude 10° 18:43:47 10° 314° (NW) 3,173 5.8 -31.8°
Maximum altitude 18:51:37 85° 228° (SW) 1,340 3.0 -33.0°
Enters shadow 18:52:17 78° 160° (SSE) 1,370 3.0 -33.1°
